SEJ2733 VABB-VAAH

Flight info

Callsign SEJ2733
Flight time 0h 51m
Altitude 35000
Route ANOLI2A ISRIS G208 APANO APANO1A
Aircraft B738/M-SDE2E3FGHIRWXY/LB1

Departure

Time 2026-05-07 16:49
Airport Chhatrapati Shivaji Maharaj International Airport (VABB)

Arrival

Time 2026-05-07 17:41
Airport Sardar Vallabh Patel International Airport (VAAH)
Time Latitude Longitude Altitude Speed Heading
2026-05-07 16:29 19.09154 72.85360 31 ft 0 kts 360°
2026-05-07 16:31 19.09153 72.85202 29 ft 0 kts 360°
2026-05-07 16:39 19.09138 72.85202 28 ft 2 kts 360°
2026-05-07 16:39 19.09123 72.85202 28 ft 2 kts
2026-05-07 16:39 19.09107 72.85202 28 ft 2 kts 14°
2026-05-07 16:39 19.09095 72.85193 27 ft 2 kts 56°
2026-05-07 16:40 19.09090 72.85181 27 ft 0 kts 85°
2026-05-07 16:40 19.09090 72.85175 27 ft 1 kts 89°
2026-05-07 16:40 19.09090 72.85173 27 ft 0 kts 89°
2026-05-07 16:42 19.09091 72.85185 27 ft 5 kts 89°
2026-05-07 16:42 19.09092 72.85244 28 ft 9 kts 88°
2026-05-07 16:42 19.09094 72.85329 30 ft 13 kts 89°
2026-05-07 16:43 19.09052 72.85398 29 ft 12 kts 161°
2026-05-07 16:43 19.08971 72.85453 28 ft 16 kts 121°
2026-05-07 16:43 19.08912 72.85579 26 ft 11 kts 114°
2026-05-07 16:43 19.08907 72.85591 26 ft 0 kts 114°
2026-05-07 16:44 19.08906 72.85594 26 ft 1 kts 111°
2026-05-07 16:44 19.08895 72.85624 26 ft 6 kts 111°
2026-05-07 16:45 19.08878 72.85689 26 ft 11 kts 99°
2026-05-07 16:45 19.08869 72.85779 28 ft 13 kts 91°
2026-05-07 16:45 19.08864 72.85892 29 ft 16 kts 92°
2026-05-07 16:45 19.08913 72.86008 31 ft 19 kts 51°
2026-05-07 16:46 19.09007 72.86129 32 ft 23 kts 54°
2026-05-07 16:46 19.09036 72.86302 32 ft 25 kts 89°
2026-05-07 16:46 19.09038 72.86504 31 ft 30 kts 89°
2026-05-07 16:46 19.09042 72.86739 31 ft 34 kts 89°
2026-05-07 16:47 19.09048 72.87008 29 ft 38 kts 88°
2026-05-07 16:47 19.09054 72.87301 29 ft 38 kts 89°
2026-05-07 16:47 19.09057 72.87517 30 ft 28 kts 88°
2026-05-07 16:47 19.09057 72.87731 31 ft 30 kts 89°
2026-05-07 16:48 19.09062 72.87955 37 ft 30 kts 88°
2026-05-07 16:48 19.08932 72.88055 37 ft 28 kts 195°
2026-05-07 16:48 19.08878 72.87870 33 ft 29 kts 268°
2026-05-07 16:48 19.08881 72.87642 29 ft 32 kts 270°
2026-05-07 16:49 19.08877 72.87391 26 ft 46 kts 269°
2026-05-07 16:49 19.08877 72.86628 35 ft 155 kts 270°
2026-05-07 16:49 19.08867 72.85285 577 ft 206 kts 270°
2026-05-07 16:49 19.08846 72.83720 1427 ft 231 kts 270°
2026-05-07 16:50 19.08816 72.81962 1523 ft 243 kts 270°
2026-05-07 16:50 19.08787 72.80216 1856 ft 236 kts 270°
2026-05-07 16:50 19.08759 72.78464 2369 ft 239 kts 270°
2026-05-07 16:50 19.08731 72.76715 2868 ft 242 kts 270°
2026-05-07 16:51 19.08750 72.74918 3353 ft 244 kts 281°
2026-05-07 16:51 19.09556 72.73395 3750 ft 244 kts 320°
2026-05-07 16:51 19.11046 72.72560 4279 ft 245 kts 336°
2026-05-07 16:51 19.12675 72.72036 4756 ft 248 kts 355°
2026-05-07 16:52 19.14384 72.72062 5285 ft 250 kts
2026-05-07 16:52 19.16101 72.72237 5781 ft 252 kts
2026-05-07 16:52 19.17854 72.72443 6287 ft 253 kts
2026-05-07 16:52 19.19591 72.72652 6784 ft 255 kts
2026-05-07 16:53 19.21361 72.72867 7287 ft 257 kts
2026-05-07 16:53 19.23136 72.73083 7871 ft 259 kts
2026-05-07 16:53 19.24917 72.73299 8509 ft 262 kts
2026-05-07 16:53 19.26728 72.73520 9138 ft 265 kts
2026-05-07 16:54 19.28473 72.73732 9736 ft 268 kts
2026-05-07 16:54 19.30329 72.73971 10363 ft 271 kts
2026-05-07 16:54 19.32201 72.74253 10992 ft 274 kts
2026-05-07 16:54 19.34069 72.74539 11612 ft 277 kts
2026-05-07 16:55 19.35975 72.74831 12239 ft 280 kts
2026-05-07 16:55 19.37911 72.75128 12868 ft 282 kts
2026-05-07 16:55 19.39840 72.75425 13490 ft 285 kts
2026-05-07 16:55 19.41826 72.75729 14123 ft 288 kts
2026-05-07 16:56 19.43781 72.76030 14741 ft 291 kts
2026-05-07 16:56 19.45784 72.76337 15372 ft 294 kts
2026-05-07 16:56 19.49823 72.76959 16632 ft 300 kts
2026-05-07 16:57 19.51909 72.77280 17272 ft 303 kts
2026-05-07 16:57 19.53978 72.77598 17902 ft 306 kts
2026-05-07 16:57 19.56106 72.77925 18544 ft 309 kts
2026-05-07 16:57 19.58233 72.78252 19178 ft 313 kts
2026-05-07 16:58 19.60364 72.78580 19807 ft 316 kts
2026-05-07 16:58 19.62541 72.78916 20442 ft 319 kts
2026-05-07 16:58 19.64737 72.79254 21076 ft 323 kts
2026-05-07 16:58 19.66966 72.79597 21709 ft 326 kts
2026-05-07 16:59 19.69205 72.79943 22344 ft 330 kts
2026-05-07 16:59 19.71433 72.80286 22974 ft 333 kts
2026-05-07 16:59 19.73715 72.80638 23611 ft 337 kts
2026-05-07 16:59 19.76048 72.80998 24252 ft 340 kts
2026-05-07 17:00 19.78372 72.81357 24886 ft 344 kts
2026-05-07 17:00 19.80752 72.81724 25531 ft 347 kts
2026-05-07 17:00 19.83160 72.82096 26176 ft 351 kts
2026-05-07 17:00 19.85555 72.82465 26816 ft 355 kts
2026-05-07 17:01 19.88004 72.82844 27463 ft 358 kts
2026-05-07 17:01 19.90488 72.83227 28112 ft 362 kts
2026-05-07 17:01 19.92974 72.83612 28756 ft 366 kts
2026-05-07 17:01 19.95483 72.84000 29400 ft 370 kts
2026-05-07 17:02 19.98004 72.84390 30042 ft 373 kts
2026-05-07 17:02 20.00563 72.84786 30690 ft 377 kts
2026-05-07 17:02 20.03176 72.85191 31346 ft 381 kts
2026-05-07 17:02 20.05800 72.85596 31997 ft 384 kts
2026-05-07 17:03 20.08445 72.85996 32639 ft 387 kts
2026-05-07 17:03 20.11062 72.86335 33252 ft 390 kts
2026-05-07 17:03 20.13776 72.86684 33882 ft 392 kts
2026-05-07 17:03 20.16460 72.87027 34500 ft 394 kts
2026-05-07 17:04 20.19178 72.87373 34862 ft 403 kts
2026-05-07 17:04 20.22001 72.87734 34857 ft 407 kts
2026-05-07 17:04 20.27570 72.88447 34826 ft 401 kts
2026-05-07 17:05 20.33085 72.89153 34807 ft 401 kts
2026-05-07 17:05 20.38576 72.89856 34804 ft 401 kts
2026-05-07 17:06 20.44104 72.90565 34803 ft 401 kts
2026-05-07 17:06 20.49654 72.91277 34804 ft 401 kts
2026-05-07 17:07 20.55169 72.91985 34804 ft 401 kts
2026-05-07 17:07 20.60685 72.92693 34804 ft 401 kts
2026-05-07 17:08 20.66238 72.93407 34804 ft 401 kts
2026-05-07 17:08 20.71744 72.94116 34804 ft 401 kts
2026-05-07 17:09 20.77253 72.94688 34803 ft 401 kts
2026-05-07 17:09 20.82808 72.94894 34806 ft 401 kts
2026-05-07 17:10 20.88399 72.95097 34804 ft 401 kts
2026-05-07 17:10 20.93951 72.95300 34804 ft 401 kts
2026-05-07 17:11 20.99502 72.95506 34804 ft 401 kts
2026-05-07 17:11 21.05042 72.95711 34804 ft 401 kts
2026-05-07 17:12 21.10563 72.95912 34803 ft 397 kts 359°
2026-05-07 17:12 21.16025 72.96109 34803 ft 393 kts 359°
2026-05-07 17:13 21.21501 72.96356 34745 ft 397 kts
2026-05-07 17:13 21.24255 72.96498 34213 ft 401 kts
2026-05-07 17:13 21.27030 72.96642 33717 ft 398 kts
2026-05-07 17:14 21.29752 72.96784 33217 ft 394 kts
2026-05-07 17:14 21.32478 72.96926 32713 ft 390 kts
2026-05-07 17:14 21.35183 72.97066 32208 ft 387 kts
2026-05-07 17:14 21.37812 72.97204 31713 ft 383 kts
2026-05-07 17:15 21.40471 72.97343 31208 ft 380 kts
2026-05-07 17:15 21.43083 72.97478 30708 ft 376 kts
2026-05-07 17:15 21.45680 72.97613 30206 ft 373 kts
2026-05-07 17:15 21.48234 72.97747 29709 ft 370 kts
2026-05-07 17:16 21.50813 72.97881 29203 ft 367 kts
2026-05-07 17:16 21.53318 72.98012 28706 ft 364 kts
2026-05-07 17:16 21.55818 72.98143 28208 ft 361 kts
2026-05-07 17:16 21.58350 72.98254 27597 ft 361 kts 356°
2026-05-07 17:17 21.60741 72.97688 26968 ft 358 kts 341°
2026-05-07 17:17 21.63097 72.96936 26367 ft 358 kts 343°
2026-05-07 17:17 21.65471 72.96216 25751 ft 358 kts 343°
2026-05-07 17:17 21.67867 72.95504 25128 ft 358 kts 344°
2026-05-07 17:18 21.70256 72.94801 24507 ft 358 kts 344°
2026-05-07 17:18 21.72620 72.94106 23892 ft 357 kts 344°
2026-05-07 17:18 21.75025 72.93399 23263 ft 357 kts 345°
2026-05-07 17:18 21.77367 72.92712 22651 ft 356 kts 345°
2026-05-07 17:19 21.79746 72.92014 22028 ft 356 kts 345°
2026-05-07 17:19 21.82145 72.91309 21399 ft 355 kts 345°
2026-05-07 17:19 21.84513 72.90613 20786 ft 354 kts 345°
2026-05-07 17:19 21.86880 72.89918 20182 ft 352 kts 345°
2026-05-07 17:20 21.89208 72.89233 19588 ft 351 kts 345°
2026-05-07 17:20 21.91563 72.88541 18975 ft 350 kts 345°
2026-05-07 17:20 21.93884 72.87858 18375 ft 348 kts 345°
2026-05-07 17:20 21.96173 72.87184 17779 ft 347 kts 345°
2026-05-07 17:21 21.98520 72.86494 17160 ft 346 kts 346°
2026-05-07 17:21 22.00828 72.85814 16557 ft 345 kts 346°
2026-05-07 17:21 22.03114 72.85140 15970 ft 343 kts 346°
2026-05-07 17:21 22.05362 72.84477 15807 ft 328 kts 346°
2026-05-07 17:22 22.07502 72.83846 15761 ft 311 kts 346°
2026-05-07 17:22 22.09533 72.83247 15758 ft 295 kts 346°
2026-05-07 17:22 22.11475 72.82674 15746 ft 286 kts 346°
2026-05-07 17:22 22.13385 72.82111 15768 ft 288 kts 346°
2026-05-07 17:23 22.15338 72.81536 15789 ft 302 kts 346°
2026-05-07 17:23 22.17512 72.80896 15856 ft 347 kts 346°
2026-05-07 17:23 22.19963 72.80173 15914 ft 373 kts 346°
2026-05-07 17:23 22.22472 72.79430 15852 ft 372 kts 345°
2026-05-07 17:24 22.24946 72.78702 15838 ft 368 kts 346°
2026-05-07 17:24 22.27415 72.77991 15803 ft 368 kts 346°
2026-05-07 17:24 22.29896 72.77276 15459 ft 372 kts 346°
2026-05-07 17:24 22.32365 72.76565 14948 ft 368 kts 346°
2026-05-07 17:25 22.34804 72.75862 14443 ft 363 kts 346°
2026-05-07 17:25 22.37246 72.75159 13931 ft 358 kts 346°
2026-05-07 17:25 22.39613 72.74476 13421 ft 351 kts 346°
2026-05-07 17:25 22.41925 72.73810 12917 ft 345 kts 346°
2026-05-07 17:26 22.44201 72.73153 12415 ft 341 kts 346°
2026-05-07 17:26 22.46486 72.72495 11871 ft 339 kts 346°
2026-05-07 17:26 22.48752 72.71840 11296 ft 338 kts 346°
2026-05-07 17:26 22.50977 72.71197 10859 ft 329 kts 346°
2026-05-07 17:27 22.53123 72.70577 10788 ft 311 kts 346°
2026-05-07 17:27 22.55174 72.69984 10783 ft 306 kts 346°
2026-05-07 17:27 22.57249 72.69385 10806 ft 310 kts 346°
2026-05-07 17:27 22.59337 72.68775 10803 ft 312 kts 346°
2026-05-07 17:28 22.61388 72.68176 10776 ft 298 kts 346°
2026-05-07 17:28 22.63386 72.67593 10790 ft 304 kts 346°
2026-05-07 17:28 22.65437 72.66994 10806 ft 307 kts 346°
2026-05-07 17:28 22.67510 72.66388 10804 ft 307 kts 346°
2026-05-07 17:29 22.69545 72.65792 10796 ft 302 kts 346°
2026-05-07 17:29 22.71555 72.65204 10794 ft 300 kts 346°
2026-05-07 17:29 22.73571 72.64614 10724 ft 302 kts 346°
2026-05-07 17:29 22.75603 72.64020 10393 ft 305 kts 346°
2026-05-07 17:30 22.77663 72.63416 9900 ft 303 kts 346°
2026-05-07 17:30 22.79662 72.62831 9490 ft 297 kts 346°
2026-05-07 17:30 22.81637 72.62252 9067 ft 294 kts 346°
2026-05-07 17:30 22.83597 72.61682 8614 ft 295 kts 346°
2026-05-07 17:31 22.85566 72.61114 8111 ft 293 kts 346°
2026-05-07 17:31 22.87567 72.60931 7515 ft 292 kts 12°
2026-05-07 17:31 22.89424 72.61730 6972 ft 287 kts 34°
2026-05-07 17:31 22.90886 72.63140 6494 ft 282 kts 43°
2026-05-07 17:32 22.92264 72.64632 5987 ft 280 kts 44°
2026-05-07 17:32 22.93616 72.66114 5481 ft 276 kts 44°
2026-05-07 17:32 22.94946 72.67574 4978 ft 273 kts 44°
2026-05-07 17:32 22.96265 72.69020 4525 ft 263 kts 44°
2026-05-07 17:33 22.97518 72.70394 4494 ft 253 kts 44°
2026-05-07 17:33 22.98752 72.71746 4498 ft 255 kts 44°
2026-05-07 17:33 23.00003 72.73117 4497 ft 257 kts 44°
2026-05-07 17:33 23.01278 72.74509 4405 ft 261 kts 43°
2026-05-07 17:34 23.02565 72.75880 4135 ft 260 kts 43°
2026-05-07 17:34 23.03861 72.77256 3665 ft 263 kts 43°
2026-05-07 17:34 23.05164 72.78640 3165 ft 262 kts 43°
2026-05-07 17:34 23.06454 72.80011 2666 ft 260 kts 43°
2026-05-07 17:35 23.07739 72.81377 2171 ft 259 kts 44°
2026-05-07 17:35 23.09017 72.82737 2018 ft 251 kts 44°
2026-05-07 17:35 23.10438 72.83691 1910 ft 236 kts
2026-05-07 17:35 23.11954 72.83486 1938 ft 209 kts 333°
2026-05-07 17:36 23.13190 72.82807 1969 ft 191 kts 331°
2026-05-07 17:36 23.14337 72.82163 1974 ft 187 kts 331°
2026-05-07 17:36 23.15497 72.81510 1996 ft 190 kts 331°
2026-05-07 17:36 23.16645 72.80865 1972 ft 181 kts 331°
2026-05-07 17:37 23.17754 72.80241 1982 ft 179 kts 328°
2026-05-07 17:37 23.18524 72.79236 1967 ft 175 kts 283°
2026-05-07 17:37 23.18508 72.77917 2021 ft 176 kts 261°
2026-05-07 17:37 23.18321 72.76608 1997 ft 176 kts 261°
2026-05-07 17:38 23.18124 72.75279 1994 ft 176 kts 258°
2026-05-07 17:38 23.17536 72.74146 2019 ft 175 kts 230°
2026-05-07 17:38 23.16727 72.73156 1995 ft 177 kts 228°
2026-05-07 17:38 23.15869 72.72184 1996 ft 176 kts 226°
2026-05-07 17:39 23.15006 72.71241 1888 ft 180 kts 226°
2026-05-07 17:39 23.14117 72.70283 1654 ft 179 kts 225°
2026-05-07 17:39 23.13224 72.69326 1417 ft 178 kts 225°
2026-05-07 17:39 23.12343 72.68384 1182 ft 177 kts 225°
2026-05-07 17:40 23.11493 72.67475 993 ft 169 kts 225°
2026-05-07 17:40 23.10669 72.66594 777 ft 157 kts 225°
2026-05-07 17:40 23.09928 72.65802 536 ft 144 kts 225°
2026-05-07 17:40 23.09217 72.65042 346 ft 147 kts 225°
2026-05-07 17:41 23.08497 72.64278 193 ft 136 kts 224°
2026-05-07 17:41 23.07942 72.63677 192 ft 83 kts 226°
2026-05-07 17:41 23.07646 72.63366 189 ft 40 kts 225°
2026-05-07 17:41 23.07490 72.63196 186 ft 23 kts 226°
2026-05-07 17:42 23.07415 72.63112 187 ft 7 kts 226°
2026-05-07 17:42 23.07398 72.63094 187 ft 10 kts 226°
2026-05-07 17:42 23.07313 72.63000 186 ft 19 kts 224°
2026-05-07 17:42 23.07220 72.62901 187 ft 18 kts 231°
2026-05-07 17:43 23.07177 72.62773 186 ft 18 kts 254°
2026-05-07 17:43 23.07147 72.62641 187 ft 17 kts 254°
2026-05-07 17:43 23.07103 72.62531 189 ft 14 kts 233°
2026-05-07 17:43 23.07036 72.62453 189 ft 13 kts 218°
2026-05-07 17:44 23.06965 72.62383 189 ft 13 kts 224°
2026-05-07 17:44 23.06898 72.62312 189 ft 13 kts 224°
2026-05-07 17:44 23.06848 72.62237 189 ft 11 kts 276°
2026-05-07 17:44 23.06896 72.62165 189 ft 11 kts 314°
2026-05-07 17:45 23.06935 72.62094 189 ft 10 kts 251°
2026-05-07 17:45 23.06926 72.62026 189 ft 8 kts 297°
2026-05-07 17:45 23.06962 72.61977 189 ft 8 kts 313°
2026-05-07 17:45 23.07005 72.61940 189 ft 7 kts 330°
2026-05-07 17:46 23.07055 72.61948 188 ft 7 kts 35°
2026-05-07 17:46 23.07066 72.61958 188 ft 0 kts 40°
2026-05-07 18:00 23.07064 72.61957 188 ft 2 kts 40°
2026-05-07 18:01 23.07053 72.61946 188 ft 2 kts 51°
2026-05-07 18:01 23.07046 72.61932 188 ft 2 kts 77°
2026-05-07 18:01 23.07046 72.61916 188 ft 2 kts 101°
2026-05-07 18:01 23.07051 72.61900 188 ft 2 kts 124°
2026-05-07 18:02 23.07059 72.61890 188 ft 0 kts 135°
2026-05-07 18:03 23.07078 72.61870 187 ft 0 kts 135°
2026-05-07 18:06 23.07075 72.61872 187 ft 0 kts 135°
2026-05-07 18:06 23.07064 72.61884 188 ft 3 kts 135°
2026-05-07 18:07 23.07040 72.61912 188 ft 6 kts 130°
2026-05-07 18:07 23.07021 72.61962 188 ft 8 kts 100°
2026-05-07 18:07 23.07005 72.62038 189 ft 11 kts 120°
2026-05-07 18:07 23.06945 72.62113 189 ft 14 kts 135°
2026-05-07 18:08 23.06864 72.62202 189 ft 18 kts 130°
2026-05-07 18:08 23.06889 72.62299 189 ft 11 kts 61°
2026-05-07 18:08 23.06950 72.62369 189 ft 14 kts 43°
2026-05-07 18:08 23.07032 72.62455 189 ft 18 kts 44°
2026-05-07 18:09 23.07129 72.62558 188 ft 21 kts 44°
2026-05-07 18:09 23.07251 72.62688 186 ft 26 kts 45°
2026-05-07 18:09 23.07388 72.62836 186 ft 29 kts 44°
2026-05-07 18:09 23.07539 72.62994 186 ft 28 kts 44°
2026-05-07 18:10 23.07668 72.63163 186 ft 28 kts 76°
2026-05-07 18:10 23.07722 72.63368 189 ft 28 kts 74°
2026-05-07 18:10 23.07821 72.63541 190 ft 25 kts 45°
2026-05-07 18:10 23.07946 72.63674 192 ft 24 kts 44°
2026-05-07 18:11 23.08070 72.63803 192 ft 25 kts 44°
2026-05-07 18:11 23.08195 72.63938 192 ft 25 kts 46°
2026-05-07 18:11 23.08323 72.64078 190 ft 26 kts 45°
2026-05-07 18:11 23.08450 72.64217 192 ft 25 kts 44°
2026-05-07 18:12 23.08577 72.64352 193 ft 25 kts 44°
2026-05-07 18:12 23.08703 72.64485 195 ft 24 kts 44°
2026-05-07 18:12 23.08845 72.64574 195 ft 20 kts 19°
2026-05-07 18:12 23.08899 72.64625 195 ft 0 kts 82°
2026-05-07 18:13 23.08899 72.64630 195 ft 0 kts 98°
2026-05-07 18:13 23.08868 72.64654 195 ft 14 kts 188°
2026-05-07 18:13 23.08695 72.64488 195 ft 73 kts 226°
2026-05-07 18:14 23.08092 72.63826 206 ft 170 kts 225°
2026-05-07 18:14 23.07156 72.62781 942 ft 207 kts 227°
2026-05-07 18:14 23.06269 72.61763 2402 ft 203 kts 225°
2026-05-07 18:14 23.05025 72.60665 2455 ft 252 kts 221°
2026-05-07 18:15 23.03716 72.59357 2440 ft 257 kts 225°
2026-05-07 18:15 23.02451 72.58007 2359 ft 254 kts 226°
2026-05-07 18:15 23.01214 72.56666 2239 ft 252 kts 226°
2026-05-07 18:15 22.99963 72.55306 2102 ft 251 kts 226°
2026-05-07 18:16 22.98737 72.53973 1968 ft 251 kts 226°
2026-05-07 18:16 22.97502 72.52630 1851 ft 249 kts 226°
2026-05-07 18:16 22.96303 72.51329 2515 ft 248 kts 226°
2026-05-07 18:16 22.95070 72.49991 3176 ft 255 kts 226°
2026-05-07 18:17 22.93805 72.48656 3824 ft 260 kts 220°
2026-05-07 18:17 22.92138 72.47845 4454 ft 265 kts 198°
2026-05-07 18:17 22.90371 72.47350 5105 ft 269 kts 194°
2026-05-07 18:17 22.88522 72.46883 5758 ft 271 kts 192°
2026-05-07 18:18 22.86715 72.46427 6391 ft 268 kts 192°
2026-05-07 18:18 22.84904 72.45984 7016 ft 272 kts 192°